Brainerd, MN

11:42 PM CDT on April 27, 2017 (GMT -0500)
Brainerd-Crow Wing County Regional

Weather History for KBRD - October, 2014

Change the Weather History Date:

Tuesday, October 28, 2014

  Actual Average Record
Temperature  
Mean Temperature 38 °F -  
Max Temperature 41 °F 54 °F 80 °F (1983)
Min Temperature 35 °F 26 °F 6 °F (1976)
Degree Days  
Heating Degree Days 27    
Moisture  
Dew Point 35 °F    
Average Humidity 90    
Maximum Humidity 100    
Minimum Humidity 73    
Precipitation  
Precipitation 0.00 in - - ()
Sea Level Pressure  
Sea Level Pressure 29.75 in    
Wind  
Wind Speed 8 mph (West)    
Max Wind Speed 22 mph    
Max Gust Speed 30 mph    
Visibility 8 miles    
Events Fog , Rain , Snow    
Averages and records for this station are not official NWS values.
T = Trace of Precipitation, MM = Missing Value Source: NWS Daily Summary

Daily Weather History Graph

Daily Weather History Graph

Search for Another Location

Airport or City:

Trip Planner

Search our weather history database for the weather conditions in past years. The results will help you decide how hot, cold, wet, or windy it might be!

Date:

Astronomy

Oct. 28, 2014 Rise Set
Actual Time 7:52 AM CDT 6:07 PM CDT
Civil Twilight 7:21 AM CDT 6:38 PM CDT
Nautical Twilight 6:45 AM CDT 7:14 PM CDT
Astronomical Twilight 6:10 AM CDT 7:49 PM CDT
Moon 12:28 PM CDT 10:08 PM CDT
Length of Visible Light 11h 17m
Length of Day
10h 15m
Waxing Crescent, 24% of the Moon is Illuminated
Oct 28
Waxing Crescent
Oct 30
First Quarter
Nov 6
Full
Nov 14
Last Quarter
Nov 22
New

Hourly Weather History & Observations

Time (CDT) Temp. Windchill Dew Point Humidity Pressure Visibility Wind Dir Wind Speed Gust Speed Precip Events Conditions
12:11 AM 37.9 °F 35.5 °F 37.0 °F 97% 29.66 in 2.0 mi SW 3.5 mph - N/A   Clear
12:15 AM 37.9 °F 35.5 °F 37.9 °F 100% 29.66 in 1.0 mi SW 3.5 mph - N/A   Mist
12:20 AM 36.0 °F 33.3 °F 36.0 °F 100% 29.66 in 0.2 mi SW 3.5 mph - N/A Fog Fog
12:46 AM 36.0 °F - 36.0 °F 100% 29.66 in 0.8 mi Calm Calm - N/A   Mostly Cloudy
12:53 AM 36.0 °F 33.3 °F 36.0 °F 100% 29.69 in 0.8 mi SW 3.5 mph - N/A   Mostly Cloudy
1:01 AM 37.9 °F 33.5 °F 37.9 °F 100% 29.66 in 1.5 mi WSW 5.8 mph - N/A   Mostly Cloudy
1:05 AM 39.9 °F 35.8 °F 39.9 °F 100% 29.66 in 3.0 mi WSW 5.8 mph - N/A   Mostly Cloudy
1:28 AM 39.9 °F 35.8 °F 39.9 °F 100% 29.67 in 8.0 mi SSW 5.8 mph - N/A   Overcast
1:37 AM 39.9 °F - 39.9 °F 100% 29.67 in 9.0 mi Calm Calm - N/A   Overcast
1:50 AM 39.2 °F - 39.2 °F 100% 29.66 in 7.0 mi Calm Calm - N/A   Overcast
1:53 AM 39.0 °F - 39.0 °F 100% 29.69 in 7.0 mi Calm Calm - N/A   Overcast
2:53 AM 39.0 °F 34.8 °F 39.0 °F 100% 29.68 in 7.0 mi South 5.8 mph - N/A   Overcast
3:22 AM 39.9 °F 33.9 °F 39.9 °F 100% 29.66 in 7.0 mi SW 9.2 mph - N/A   Overcast
3:35 AM 39.9 °F 33.4 °F 39.9 °F 100% 29.65 in 7.0 mi WSW 10.4 mph - N/A   Overcast
3:45 AM 39.9 °F 32.9 °F 39.0 °F 97% 29.66 in 9.0 mi WSW 11.5 mph - N/A   Overcast
3:53 AM 39.0 °F 32.8 °F 39.0 °F 100% 29.68 in 10.0 mi West 9.2 mph - N/A   Overcast
4:53 AM 39.0 °F 33.4 °F 37.9 °F 96% 29.68 in 10.0 mi West 8.1 mph - N/A   Overcast
5:53 AM 39.0 °F 32.8 °F 37.0 °F 93% 29.68 in 10.0 mi West 9.2 mph - N/A   Overcast
6:53 AM 39.0 °F 32.8 °F 37.0 °F 93% 29.69 in 10.0 mi West 9.2 mph - 0.00 in   Overcast
7:53 AM 39.0 °F 32.3 °F 37.9 °F 96% 29.70 in 10.0 mi West 10.4 mph - 0.00 in Rain Light Rain
8:06 AM 39.0 °F 33.4 °F 37.9 °F 96% 29.67 in 10.0 mi West 8.1 mph - 0.00 in   Overcast
8:53 AM 39.0 °F 31.0 °F 37.9 °F 96% 29.72 in 10.0 mi West 13.8 mph - 0.00 in   Overcast
9:53 AM 41.0 °F 35.2 °F 37.9 °F 89% 29.73 in 10.0 mi West 9.2 mph - N/A   Overcast
10:53 AM 41.0 °F 33.1 °F 37.9 °F 89% 29.75 in 10.0 mi West 15.0 mph 23.0 mph 0.00 in Rain Light Rain
11:10 AM 41.0 °F 33.1 °F 36.0 °F 82% 29.73 in 10.0 mi WNW 15.0 mph 25.3 mph 0.00 in   Overcast
11:53 AM 41.0 °F 33.1 °F 34.0 °F 76% 29.78 in 10.0 mi West 15.0 mph 24.2 mph 0.00 in   Overcast
12:53 PM 41.0 °F 33.1 °F 34.0 °F 76% 29.79 in 10.0 mi WNW 15.0 mph - N/A   Overcast
1:53 PM 39.9 °F 31.4 °F 32.0 °F 73% 29.80 in 10.0 mi West 16.1 mph 27.6 mph N/A   Overcast
2:53 PM 37.9 °F 28.2 °F 30.9 °F 76% 29.82 in 10.0 mi West 18.4 mph 24.2 mph 0.00 in Rain Light Rain
3:53 PM 37.9 °F 28.5 °F 30.9 °F 76% 29.84 in 10.0 mi West 17.3 mph 25.3 mph 0.00 in   Overcast
4:53 PM 37.0 °F 27.7 °F 30.0 °F 76% 29.87 in 10.0 mi WNW 16.1 mph 26.5 mph N/A   Overcast
5:01 PM 37.0 °F 26.4 °F 30.0 °F 76% 29.83 in 10.0 mi WNW 20.7 mph 27.6 mph N/A   Overcast
5:30 PM 36.0 °F 26.7 °F 30.9 °F 82% 29.84 in 10.0 mi WNW 15.0 mph 27.6 mph 0.00 in Rain Light Rain
5:53 PM 36.0 °F 25.0 °F 30.0 °F 79% 29.88 in 10.0 mi WNW 20.7 mph 28.8 mph 0.00 in   Overcast
6:53 PM 36.0 °F 26.0 °F 30.0 °F 79% 29.91 in 10.0 mi WNW 17.3 mph 24.2 mph 0.00 in   Overcast
7:53 PM 36.0 °F 24.7 °F 30.0 °F 79% 29.92 in 10.0 mi WNW 21.9 mph 29.9 mph 0.00 in Snow Light Snow
8:53 PM 36.0 °F 26.0 °F 28.9 °F 76% 29.93 in 9.0 mi NW 17.3 mph 28.8 mph 0.00 in Snow Light Snow
9:53 PM 36.0 °F 27.1 °F 28.9 °F 76% 29.95 in 10.0 mi NW 13.8 mph 28.8 mph 0.00 in Snow Light Snow
10:53 PM 35.1 °F 24.5 °F 30.0 °F 82% 29.98 in 10.0 mi NW 18.4 mph 26.5 mph 0.00 in   Overcast
11:53 PM 35.1 °F 24.8 °F 30.0 °F 82% 30.00 in 10.0 mi NW 17.3 mph 23.0 mph N/A   Overcast